カタログに戻る

CZ-6A DEB

運用中PO
NORAD 60713·DEBRIS·🇨🇳 China

打ち上げ Aug 6, 2024 から Taiyuan Satellite Launch Center

Loading…

次のパス (今後24時間)

TLE

最新Source: Space-Track

元期: Sep 14, 2026, 17:32 UTC

1 60713U 24140DS  26257.73061369  .00000111  00000-0  46009-4 0  9991
2 60713  89.0074 265.8043 0046142 235.9802 123.7002 14.19038700108299

AllMySatでCZ-6A DEBをリアルタイム追跡

Download on the App Store